Vertical_Velocity
1 1 -0 -1 -1 0 -0 2 2 2 1 0 2 -0 1 -1 -2 5 -37 -0 -0 -2 -19 2 -3 1 -4 7 1 -2 -2 4 2 4 4 -3 2 -4 4 -2 -5 -7 -2 -1 4 3 -3 -1 2 13 14 -1 2 -0
2 -0 -2 0 0 -0 -0 -0 1 2 4 1 0 2 -0 2 1 22 17 -10 -0 12 -9 2 -13 -8 15 9 0 3 -8 -1 -7 4 3 1 0 1 -1 -2 5 6 -10 -10 -8 -13 -2 -2 1 -2 -1 3 1 2
-1 -1 0 0 1 2 -0 0 1 5 5 -0 -2 2 1 1 2 12 11 6 22 16 -9 19 -5 -12 -14 -1 10 -1 -2 -0 0 8 1 -0 2 4 -0 -7 5 -2 -0 1 -4 -6 -2 5 2 8 0 1 -0 0
-1 -2 -3 1 -2 -0 -1 1 1 0 1 -0 3 4 -1 0 2 8 3 -8 16 2 1 -21 1 -16 -8 4 -3 -3 -1 -5 -0 -2 1 1 2 5 -1 -2 7 -5 7 -2 -5 -4 2 7 0 3 -3 1 -2 -3
-3 1 -3 -3 -2 -2 1 -1 -1 -0 1 -0 1 2 2 1 3 16 8 -4 -7 -42 -4 -11 5 -6 1 -1 5 4 1 11 3 2 2 -2 -0 5 -2 5 -1 -1 -1 4 0 6 5 9 1 -2 -1 -0 2 -1
-0 -0 0 -1 2 1 -1 3 -1 1 -0 1 1 4 6 5 9 39 16 25 -4 -7 9 2 -0 8 -1 2 9 3 7 7 -3 2 -1 -1 -3 -4 2 -1 -11 11 -2 1 7 -1 -0 1 10 -2 -4 -2 -1 -1
-5 -1 2 5 -0 -1 -1 -1 0 -0 -1 1 3 2 10 3 5 -3 -8 -20 -9 14 4 0 2 1 4 4 3 15 6 5 4 -1 0 -0 1 1 1 1 3 1 1 1 -3 -6 4 -5 2 -1 2 0 -2 2
3 2 2 -2 2 1 -1 1 1 -2 1 4 6 3 4 5 19 1 -0 -2 5 -2 4 1 3 4 0 4 4 4 1 2 4 -1 0 0 0 2 2 5 2 -1 -2 4 -3 -2 5 -2 -3 -2 -2 -1 0 -1
2 3 -2 4 5 -3 1 6 2 3 5 3 13 18 15 4 -3 -2 -1 18 12 -8 -2 1 -1 1 -1 2 -2 1 7 0 -3 0 -1 8 -2 3 4 1 1 -0 2 0 -4 5 -1 -0 2 -1 -2 -1 0 0
-1 13 -0 3 1 -1 0 -1 7 10 11 11 3 -8 -0 -11 10 -3 23 -0 6 0 4 0 1 0 -0 1 3 1 0 -1 1 -3 -0 1 3 2 1 2 1 -0 -0 -2 -3 -1 -5 -1 0 -2 0 0 -0 1
2 0 -3 13 -2 1 -1 3 -0 2 5 -14 -1 5 9 26 -5 -3 0 -1 2 4 0 2 -0 -2 -3 0 -1 -1 -1 -0 3 4 4 1 3 3 -1 -0 -2 -0 1 1 3 1 1 1 2 2 -0 1 1 2
6 -3 2 1 5 8 18 7 5 7 6 -1 -23 -2 -3 0 1 -1 1 3 1 3 2 -0 2 2 -1 -5 0 1 -0 2 2 1 3 1 6 3 1 -1 -1 -1 0 -0 -0 1 1 2 3 1 0 -0 1 3
3 4 -1 -1 4 1 -4 -0 0 -0 -4 -11 -5 -6 3 -0 1 0 1 3 1 1 2 1 1 -2 -2 -0 -0 1 2 2 2 1 3 5 5 -1 -1 1 -2 1 2 2 0 -1 1 2 1 0 1 2 2 2
8 6 1 5 6 -2 5 9 4 4 7 -6 -1 -1 0 1 1 1 2 2 3 2 0 2 0 -1 -1 -1 1 -1 3 3 2 2 4 4 3 2 2 4 -0 1 0 -0 0 2 1 0 -0 0 1 3 3 -0
6 -2 5 1 -0 2 3 2 -3 -3 -9 -4 -6 1 -1 3 -0 -1 -3 2 0 0 1 2 -1 -4 0 -2 -0 1 2 1 3 5 3 3 0 1 1 2 1 1 2 2 1 -0 1 1 0 0 2 1 0 1
-10 -7 -2 1 4 0 -2 -0 2 -6 -5 -6 -6 -1 -1 -1 3 -1 0 2 -2 -3 -2 2 -0 -2 1 -0 -2 1 1 2 5 2 4 -0 1 1 1 1 1 1 0 1 0 1 2 1 0 -0 1 -0 -1 -1
0 -2 -3 -5 -4 -1 0 -2 -4 -7 -3 -2 1 -2 1 -2 4 2 1 0 -3 3 0 -1 -3 4 1 -1 -0 1 3 4 3 2 1 3 4 3 2 1 2 3 2 2 1 1 1 1 0 -0 -2 1 -0 -1
1 -2 1 1 -0 4 -7 -6 -4 -3 -1 3 -3 5 -2 1 3 0 1 -1 0 1 -1 2 -1 -2 1 0 2 3 2 1 0 -0 0 -1 -2 -1 -0 -1 -0 -0 -1 -1 -0 -0 1 1 1 -1 -1 -0 -0 -0
-2 -3 -2 0 -1 -0 -2 -3 -3 -3 3 0 1 -1 -1 1 1 1 1 0 -0 1 -2 -2 -3 1 2 2 -1 2 1 1 1 1 -1 -1 -0 -0 0 0 0 1 1 1 1 -0 -1 -1 0 0 -0 1 1 0
-1 -3 2 2 2 -4 -3 -1 -3 -3 2 1 0 1 -2 1 -1 0 -2 -2 -1 -4 -5 -2 2 7 -0 4 0 -2 -2 -1 -2 1 2 1 -0 0 2 3 1 0 -0 0 -0 1 0 -1 -2 -2 -0 1 1 1
-3 -4 3 2 -8 -7 -2 -1 -2 -4 1 -1 2 -0 1 -3 -3 -2 -2 1 -10 1 1 3 -0 2 5 5 4 1 3 8 4 7 -0 -1 0 1 0 -0 -1 -1 1 2 1 -2 -2 -1 -0 -0 -0 -1 -1 -1
-0 3 2 1 -5 -1 -4 -0 -5 1 -2 -0 -1 0 0 -0 1 -0 4 -9 -0 7 5 3 5 2 -1 -1 -1 -2 -1 -3 -3 -3 -5 -2 3 1 2 2 2 -0 -1 -0 1 0 1 1 0 -0 -1 -1 1 1
4 4 0 -1 -5 -2 2 2 -3 2 -2 3 -0 -1 1 0 -0 1 -2 -0 1 2 3 -2 -3 -3 -2 1 0 0 -0 0 -0 -0 -0 -0 -0 -1 0 -0 -0 -0 1 -0 0 2 -1 -0 -1 -1 -2 1 -0 -1
2 -2 -2 -0 -3 3 -1 0 -0 -1 1 -0 -1 1 1 2 -1 -3 1 1 2 -1 -2 -0 0 -1 -1 0 1 0 0 -1 -0 -0 -0 1 1 -0 -1 -1 -1 -2 -1 -0 -0 -1 -0 -2 -2 1 -1 -0 -1 -0
-1 -2 0 2 2 -1 -0 1 1 -1 0 1 -1 1 2 1 -1 -1 1 3 2 2 0 -1 0 2 -0 -2 -1 -1 -2 0 1 0 -1 -1 -2 -1 -1 -0 -1 -1 -1 1 1 1 -0 -1 -0 1 -0 0 -0 -1
-4 0 2 1 2 -2 1 -1 0 0 -1 -0 1 1 -0 -1 -2 2 2 1 0 -1 0 2 0 -1 -0 -0 1 2 -0 -1 -1 1 -1 -1 -1 -1 1 1 2 2 -3 -2 -1 1 0 -0 1 -0 0 0 0 -0
-1 2 1 -2 3 -1 0 0 -1 -3 -1 -0 1 0 -1 -1 1 4 -1 2 -1 -1 0 -2 -1 2 1 -1 -2 -2 -1 -2 -3 -2 -1 -1 -1 -1 -2 1 2 -2 -1 -1 -1 -1 2 -0 0 -1 -1 -1 -0 -1
2 -1 -2 2 -2 1 -1 -1 -1 0 1 -0 -2 -1 -0 1 3 8 2 2 -1 -1 -1 -1 -1 0 -1 -1 -1 -1 -1 -1 -1 -2 -2 -3 -1 -2 -1 -1 -1 0 -1 -1 -1 -1 -1 -1 -0 -0 -0 -0 -0 -0
-1 2 -3 -0 -1 -2 1 2 2 1 -1 1 -1 1 2 -0 3 -2 1 -1 -1 -1 -1 -0 -1 -0 -1 -1 -1 -1 -1 -1 1 -2 -1 2 4 -1 -1 -1 -1 -0 0 -0 -0 0 -1 -0 -1 -1 -1 -1 -1 -1
2 0 -3 -1 -2 2 5 4 0 -1 -3 -4 -5 1 -2 -1 2 1 -1 -1 1 1 -0 -1 -1 0 -1 -0 -1 -1 -1 -1 -1 -1 2 2 1 -2 -1 -1 -1 -1 0 0 -0 -0 -1 -1 -1 -1 -1 -1 -1 0
0 -1 -3 -1 1 5 3 -3 -2 -4 -2 0 6 -6 1 -2 -1 -2 -2 -2 -2 -1 -1 -0 -0 -0 -0 -0 1 0 2 -2 -1 0 0 0 -0 -1 -1 -0 -0 0 0 -0 -1 -0 -1 -1 -1 -1 -1 -0 0 0
-2 -0 -4 -0 4 -4 4 7 0 -1 3 -1 1 -4 -2 1 1 1 -0 -0 -1 0 -0 -1 1 0 -1 -0 -1 -1 -1 -1 -1 -0 -0 -0 -1 -1 -1 -1 -0 -1 -1 -1 -1 -1 -1 -1 -0 0 0 1 1 1
-0 -0 -2 -3 1 3 -3 3 1 0 -0 0 0 -1 -1 2 3 1 1 -2 -1 3 1 -2 -1 -1 -1 -1 -2 -2 -1 -1 -1 -1 -0 -1 -1 -1 -1 -1 -1 -1 -0 -0 -0 -0 -0 0 0 0 -0 -0 -0 -1
Height
1383 1380 1378 1375 1373 1371 1369 1368 1368 1368 1370 1373 1376 1379 1384 1390 1397 1405 1407 1416 1422 1422 1421 1422 1423 1425 1423 1421 1423 1428 1429 1433 1437 1432 1424 1411 1405 1402 1396 1395 1403 1408 1417 1420 1419 1420 1412 1395 1393 1399 1401 1405 1407 1408
1373 1370 1368 1365 1363 1360 1358 1357 1357 1358 1359 1364 1368 1372 1377 1382 1388 1396 1401 1406 1416 1421 1417 1418 1419 1421 1420 1422 1425 1424 1426 1426 1427 1426 1413 1407 1405 1401 1397 1397 1395 1403 1401 1401 1402 1398 1395 1396 1399 1405 1407 1408 1408 1408
1363 1360 1357 1354 1351 1348 1347 1347 1349 1350 1351 1354 1359 1364 1370 1376 1381 1386 1393 1399 1409 1413 1416 1415 1411 1415 1416 1417 1419 1422 1423 1424 1420 1418 1418 1414 1410 1401 1402 1395 1394 1392 1401 1402 1406 1393 1398 1395 1398 1403 1408 1409 1410 1411
1353 1350 1346 1343 1341 1340 1339 1339 1340 1341 1343 1345 1351 1356 1362 1369 1375 1381 1385 1390 1400 1405 1410 1402 1404 1408 1411 1412 1415 1418 1419 1421 1422 1422 1420 1415 1409 1401 1398 1395 1393 1391 1392 1390 1388 1390 1390 1392 1400 1406 1410 1410 1411 1412
1343 1339 1337 1336 1333 1332 1330 1330 1331 1333 1335 1338 1344 1349 1356 1363 1370 1377 1381 1384 1390 1400 1398 1397 1400 1400 1403 1408 1410 1413 1416 1419 1420 1420 1418 1414 1407 1407 1402 1401 1396 1390 1390 1392 1394 1402 1401 1401 1408 1409 1411 1413 1414 1413
1337 1333 1331 1328 1324 1321 1318 1318 1320 1323 1328 1333 1338 1344 1349 1358 1366 1374 1378 1383 1387 1395 1398 1394 1393 1395 1397 1402 1406 1409 1412 1415 1416 1413 1414 1409 1407 1410 1406 1394 1393 1394 1401 1405 1404 1409 1409 1409 1410 1411 1413 1414 1414 1414
1333 1328 1324 1318 1312 1306 1301 1302 1306 1313 1320 1328 1335 1341 1347 1355 1361 1365 1370 1371 1381 1395 1400 1396 1390 1392 1394 1401 1403 1405 1408 1410 1410 1411 1413 1411 1406 1407 1408 1400 1409 1407 1408 1408 1409 1409 1408 1412 1413 1412 1412 1411 1411 1412
1328 1324 1318 1311 1302 1296 1290 1293 1300 1308 1317 1326 1333 1340 1348 1355 1362 1364 1366 1367 1379 1391 1395 1390 1387 1391 1394 1396 1399 1402 1403 1406 1407 1408 1410 1408 1403 1404 1403 1411 1411 1413 1412 1412 1414 1415 1415 1414 1413 1412 1411 1410 1410 1409
1326 1321 1314 1306 1303 1299 1297 1298 1301 1307 1316 1325 1333 1341 1350 1356 1361 1364 1367 1373 1380 1387 1386 1385 1382 1385 1392 1393 1397 1400 1400 1401 1405 1405 1405 1404 1397 1402 1417 1417 1417 1418 1418 1417 1416 1415 1415 1415 1414 1413 1412 1411 1410 1410
1325 1320 1312 1303 1303 1302 1302 1302 1304 1311 1319 1326 1335 1345 1352 1357 1360 1363 1372 1375 1378 1382 1382 1380 1380 1384 1389 1391 1393 1398 1398 1400 1397 1398 1400 1399 1412 1419 1420 1419 1420 1419 1418 1417 1415 1414 1415 1415 1414 1413 1412 1412 1412 1412
1325 1323 1315 1308 1306 1306 1305 1306 1312 1318 1324 1332 1337 1345 1353 1358 1363 1366 1369 1372 1376 1378 1379 1378 1381 1383 1388 1388 1392 1396 1395 1393 1386 1393 1393 1392 1406 1420 1421 1422 1422 1421 1420 1419 1418 1417 1416 1415 1415 1414 1414 1414 1413 1413
1328 1328 1323 1320 1318 1317 1320 1323 1326 1328 1330 1333 1338 1349 1357 1360 1361 1363 1364 1369 1366 1370 1377 1378 1382 1384 1388 1388 1388 1394 1390 1389 1385 1393 1391 1393 1418 1422 1422 1423 1422 1421 1420 1419 1418 1417 1416 1416 1415 1415 1415 1416 1416 1415
1330 1332 1331 1329 1329 1331 1331 1332 1332 1333 1336 1342 1348 1356 1358 1363 1361 1357 1361 1364 1368 1374 1378 1379 1384 1386 1389 1389 1390 1388 1387 1390 1395 1393 1398 1415 1423 1425 1426 1425 1424 1423 1421 1421 1420 1419 1418 1417 1417 1417 1418 1419 1419 1418
1333 1334 1334 1335 1337 1336 1337 1337 1339 1341 1342 1345 1351 1360 1362 1364 1368 1371 1370 1371 1378 1378 1378 1380 1382 1384 1387 1390 1391 1389 1398 1394 1392 1392 1406 1422 1427 1428 1427 1426 1426 1425 1424 1423 1423 1422 1422 1421 1421 1423 1423 1423 1423 1423
1336 1338 1339 1339 1340 1342 1343 1343 1344 1345 1347 1355 1361 1367 1373 1378 1379 1379 1379 1379 1380 1379 1379 1380 1381 1384 1389 1392 1395 1395 1396 1396 1402 1407 1420 1427 1429 1429 1429 1429 1428 1428 1428 1428 1427 1427 1427 1427 1427 1427 1428 1428 1428 1428
1339 1340 1341 1342 1343 1344 1345 1346 1346 1348 1358 1367 1375 1376 1379 1377 1380 1381 1381 1382 1383 1382 1381 1381 1383 1388 1395 1396 1397 1402 1395 1400 1417 1425 1429 1431 1432 1432 1432 1432 1432 1432 1432 1432 1432 1432 1432 1432 1432 1432 1432 1433 1432 1432
1341 1341 1341 1343 1344 1346 1347 1347 1350 1360 1371 1378 1385 1385 1384 1385 1386 1387 1387 1386 1384 1384 1385 1384 1388 1397 1398 1400 1407 1414 1416 1424 1429 1432 1434 1435 1435 1436 1436 1436 1436 1436 1436 1436 1437 1437 1437 1437 1438 1438 1437 1438 1437 1437
1341 1342 1343 1345 1346 1347 1347 1352 1360 1371 1381 1386 1388 1390 1390 1390 1391 1391 1391 1389 1388 1388 1390 1396 1398 1402 1405 1406 1414 1427 1430 1433 1434 1436 1437 1438 1438 1438 1439 1439 1439 1439 1439 1439 1440 1440 1441 1441 1441 1441 1441 1441 1441 1441
1340 1342 1344 1346 1347 1349 1355 1363 1368 1378 1388 1391 1393 1394 1394 1396 1397 1396 1395 1394 1394 1394 1397 1403 1409 1413 1420 1424 1427 1431 1433 1434 1436 1438 1439 1440 1440 1440 1441 1441 1441 1441 1441 1442 1442 1442 1442 1442 1443 1444 1444 1444 1444 1443
1341 1342 1345 1348 1349 1353 1363 1371 1374 1380 1388 1394 1395 1396 1398 1399 1401 1400 1400 1399 1399 1400 1409 1416 1422 1427 1428 1430 1431 1433 1435 1436 1438 1440 1442 1443 1443 1443 1443 1444 1444 1444 1444 1444 1444 1445 1445 1445 1444 1444 1444 1445 1445 1445
1345 1346 1348 1350 1352 1358 1368 1374 1380 1386 1390 1394 1397 1398 1402 1403 1403 1404 1404 1405 1406 1415 1423 1429 1432 1433 1433 1434 1435 1436 1437 1438 1439 1440 1442 1444 1445 1445 1445 1445 1445 1446 1446 1446 1446 1446 1446 1446 1446 1446 1445 1445 1444 1444
1349 1350 1352 1353 1358 1366 1374 1377 1380 1386 1391 1395 1397 1398 1402 1405 1407 1410 1412 1414 1425 1431 1432 1434 1435 1436 1437 1438 1438 1439 1440 1440 1441 1443 1444 1445 1447 1447 1447 1447 1447 1447 1447 1447 1447 1447 1447 1446 1446 1446 1445 1445 1445 1445
1350 1352 1353 1356 1363 1371 1382 1380 1383 1386 1390 1395 1398 1400 1405 1408 1413 1414 1419 1428 1435 1437 1437 1437 1438 1439 1440 1441 1441 1442 1444 1445 1445 1446 1446 1447 1447 1448 1448 1448 1448 1448 1448 1447 1447 1447 1446 1444 1444 1445 1445 1446 1446 1445
1351 1352 1354 1359 1365 1374 1379 1381 1383 1386 1391 1394 1398 1403 1407 1411 1415 1417 1425 1434 1438 1439 1440 1440 1441 1442 1443 1444 1445 1446 1446 1447 1447 1448 1448 1449 1449 1449 1449 1448 1448 1447 1447 1447 1447 1446 1446 1445 1444 1446 1445 1446 1445 1446
1353 1361 1361 1363 1366 1370 1375 1380 1384 1386 1390 1395 1400 1405 1410 1412 1414 1421 1428 1437 1439 1440 1441 1443 1443 1445 1446 1447 1447 1447 1447 1449 1450 1450 1449 1449 1449 1449 1449 1449 1447 1446 1446 1447 1447 1446 1445 1445 1445 1445 1445 1445 1445 1444
1356 1364 1363 1363 1367 1367 1372 1377 1381 1386 1391 1397 1404 1409 1410 1411 1417 1425 1431 1436 1439 1441 1442 1444 1445 1447 1448 1449 1450 1450 1450 1449 1450 1451 1450 1449 1449 1450 1450 1449 1449 1448 1444 1445 1446 1446 1445 1444 1444 1443 1444 1443 1442 1442
1359 1365 1368 1370 1370 1372 1377 1383 1385 1388 1392 1399 1404 1407 1408 1414 1423 1433 1436 1438 1440 1442 1443 1445 1446 1447 1448 1449 1448 1448 1448 1448 1449 1449 1448 1447 1447 1446 1447 1448 1447 1446 1443 1443 1443 1444 1445 1444 1444 1443 1443 1443 1442 1441
1368 1370 1370 1376 1376 1378 1382 1387 1392 1396 1401 1406 1406 1411 1413 1418 1426 1433 1436 1439 1440 1442 1443 1444 1446 1447 1448 1447 1448 1448 1448 1448 1449 1448 1448 1447 1446 1445 1444 1444 1443 1443 1442 1441 1441 1441 1441 1442 1442 1442 1441 1440 1440 1439
1373 1376 1377 1383 1384 1390 1397 1399 1402 1407 1410 1408 1409 1415 1423 1428 1432 1434 1437 1439 1441 1443 1444 1445 1446 1447 1447 1448 1449 1449 1450 1450 1451 1450 1450 1450 1449 1447 1444 1444 1443 1442 1442 1442 1440 1440 1439 1439 1439 1438 1438 1438 1437 1436
1380 1381 1384 1391 1395 1402 1409 1409 1411 1411 1411 1411 1414 1421 1426 1431 1434 1437 1439 1442 1444 1445 1446 1447 1447 1449 1450 1450 1450 1450 1449 1449 1449 1449 1450 1449 1448 1446 1444 1443 1443 1441 1441 1440 1440 1440 1438 1437 1437 1437 1436 1436 1436 1435
1382 1384 1389 1397 1406 1414 1414 1414 1415 1416 1416 1417 1421 1423 1427 1433 1437 1438 1440 1441 1443 1444 1446 1447 1448 1449 1450 1450 1451 1451 1451 1448 1448 1447 1446 1445 1444 1444 1443 1442 1441 1440 1440 1439 1438 1437 1437 1436 1436 1436 1435 1434 1432 1431
1386 1387 1392 1400 1412 1416 1415 1418 1419 1422 1424 1426 1428 1429 1433 1435 1438 1441 1441 1443 1445 1447 1447 1449 1450 1450 1450 1450 1450 1449 1449 1448 1447 1446 1445 1444 1443 1442 1442 1441 1440 1439 1439 1438 1437 1436 1436 1435 1434 1433 1432 1431 1429 1427
1391 1392 1394 1400 1409 1412 1415 1415 1418 1424 1426 1429 1432 1433 1434 1435 1438 1441 1441 1442 1445 1447 1448 1448 1449 1449 1449 1450 1449 1449 1448 1447 1446 1445 1444 1443 1443 1442 1441 1440 1440 1439 1438 1437 1436 1435 1435 1434 1432 1431 1429 1427 1426 1424